Messina, Italy

9:59 AM CET on February 23, 2018 (GMT +0100)
Messina

Weather History for LICF - January, 2013

Change the Weather History Date:

Wednesday, January 16, 2013

  Actual Average (LICR) Record (LICR)
Temperature  
Mean Temperature 49 °F -  
Max Temperature 54 °F 59 °F 64 °F (2008)
Min Temperature 44 °F 49 °F 41 °F (2005)
Degree Days  
Heating Degree Days 16    
Moisture  
Dew Point 41 °F    
Average Humidity 75    
Maximum Humidity 100    
Minimum Humidity 28    
Precipitation  
Precipitation 0.71 in 0.14 in - ()
Sea Level Pressure  
Sea Level Pressure 29.68 in    
Wind  
Wind Speed 5 mph ()    
Max Wind Speed 12 mph    
Max Gust Speed 28 mph    
Visibility 5.7 miles    
Events Rain , Thunderstorm    
Averages and records for this station are not official NWS values.
T = Trace of Precipitation, MM = Missing Value Source: Averaged Metar Reports

Daily Weather History Graph

Daily Weather History Graph

Search for Another Location

Airport or City:

Trip Planner

Search our weather history database for the weather conditions in past years. The results will help you decide how hot, cold, wet, or windy it might be!

Date:

Astronomy

Jan. 16, 2013 Rise Set
Actual Time 7:12 AM CET 5:02 PM CET
Civil Twilight 6:43 AM CET 5:31 PM CET
Nautical Twilight 6:11 AM CET 6:04 PM CET
Astronomical Twilight 5:39 AM CET 6:35 PM CET
Moon 9:45 AM CET (1/16) 10:30 PM CET (1/16)
Length of Visible Light 10h 47m
Length of Day
9h 50m
Waxing Crescent, 25% of the Moon is Illuminated
Jan 16
Waxing Crescent
Jan 19
First Quarter
Jan 27
Full
Feb 3
Last Quarter
Feb 10
New

Hourly Weather History & Observations

Time (CET) Temp. Windchill Dew Point Humidity Pressure Visibility Wind Dir Wind Speed Gust Speed Precip Events Conditions
12:55 AM 48.2 °F - 41.0 °F 76% 29.77 in 6.2 mi SSW 3.5 mph - N/A   Partly Cloudy
1:00 AM 47 °F - 42 °F 76% 29.79 in 6 mi SSW 3.5 mph - -   Partly Cloudy
1:55 AM 46.4 °F 44.3 °F 39.2 °F 76% 29.77 in - West 4.6 mph - N/A   Clear
2:55 AM 46.4 °F 45.2 °F 41.0 °F 81% 29.77 in - West 3.5 mph - N/A   Clear
3:55 AM 48.2 °F - 39.2 °F 71% 29.71 in - West 6.9 mph - N/A   Clear
4:55 AM 48.2 °F - 37.4 °F 66% 29.71 in 6.2 mi WNW 3.5 mph - N/A   Partly Cloudy
5:55 AM 46.4 °F - 39.2 °F 76% 29.68 in 6.2 mi WNW 2.3 mph - N/A   Partly Cloudy
6:55 AM 50.0 °F - 41.0 °F 71% 29.68 in 6.2 mi West 8.1 mph - N/A   Partly Cloudy
7:00 AM 50 °F - 40 °F 60% 29.70 in 6 mi West 8.1 mph - -   Scattered Clouds
7:55 AM 51.8 °F - 42.8 °F 71% 29.68 in 5.6 mi NW 11.5 mph - N/A Rain Light Rain
8:55 AM 48.2 °F - 44.6 °F 87% 29.68 in 5.0 mi NW 9.2 mph 21.9 mph N/A Rain Light Rain
9:55 AM 48.2 °F - 41.0 °F 76% 29.68 in 6.2 mi NW 9.2 mph - N/A   Scattered Clouds
10:55 AM 50.0 °F - 37.4 °F 62% 29.68 in 6.2 mi WNW 8.1 mph 19.6 mph N/A   Scattered Clouds
11:55 AM 55.4 °F - 33.8 °F 44% 29.65 in 6.2 mi West 5.8 mph 18.4 mph N/A   Partly Cloudy
12:55 PM 53.6 °F - 30.2 °F 41% 29.68 in 6.2 mi NW 11.5 mph 27.6 mph N/A   Partly Cloudy
1:00 PM 54 °F - 31 °F 28% 29.68 in 12 mi NW 11.5 mph - -   Partly Cloudy
1:55 PM 51.8 °F - 37.4 °F 58% 29.65 in 6.2 mi NNW 8.1 mph 24.2 mph N/A   Partly Cloudy
2:55 PM 51.8 °F - 33.8 °F 50% 29.62 in 6.2 mi WNW 5.8 mph - N/A   Scattered Clouds
3:55 PM 48.2 °F - 39.2 °F 71% 29.68 in 5.0 mi West 11.5 mph 24.2 mph N/A Rain Light Rain
4:55 PM 46.4 °F 42.9 °F 39.2 °F 76% 29.62 in 6.2 mi West 6.9 mph - N/A   Mostly Cloudy
5:35 PM 46.4 °F 41.9 °F 41.0 °F 81% 29.65 in 2.5 mi NNE 9.2 mph - N/A Rain , Thunderstorm Thunderstorms and Rain
5:55 PM 46.4 °F 42.4 °F 42.8 °F 87% 29.65 in 2.5 mi North 8.1 mph - N/A Rain , Thunderstorm Thunderstorms and Rain
6:55 PM 44.6 °F 40.2 °F 44.6 °F 100% 29.68 in 3.7 mi NW 8.1 mph - N/A Rain , Thunderstorm Light Thunderstorms and Rain
7:00 PM 45 °F - 44 °F 96% 29.70 in 2 mi NW 8.1 mph - - Rain , Thunderstorm Thunderstorms and Rain
7:10 PM 46.4 °F 43.5 °F 42.8 °F 87% 29.68 in 6.2 mi NW 5.8 mph - N/A   Scattered Clouds
7:55 PM 46.4 °F 45.2 °F 44.6 °F 93% 29.68 in 3.7 mi NNW 3.5 mph - N/A Rain Rain
8:55 PM 46.4 °F - 46.4 °F 100% 29.65 in 6.2 mi Calm Calm - N/A   Mostly Cloudy
9:55 PM 48.2 °F - 46.4 °F 93% 29.68 in 6.2 mi NNE 2.3 mph - N/A   Mostly Cloudy
10:55 PM 48.2 °F - 46.4 °F 93% 29.65 in 6.2 mi Variable 3.5 mph - N/A   Mostly Cloudy
11:55 PM 48.2 °F - 46.4 °F 93% 29.65 in 6.2 mi WSW 3.5 mph - N/A   Mostly Cloudy